Location: Spaichingen
(48.0400°N, 8.4300°E)
Time: 07:01:23
(UTC+01:00)

ISS - Pass Details

Date: 31 January 2019
Orbit: 403 x 411 km, 51.6° (Epoch: 22 February)

Event Time Altitude Azimuth Distance (km) Brightness Sun altitude
Rises 19:45:01 0° 287° (WNW) 2,337 1.3 -23.6°
Reaches altitude 10° 19:47:09 10° 293° (WNW) 1,477 -0.1 -24.0°
Enters shadow 19:49:03 29° 312° (NW) 784 -2.0 -24.3°
